DL2GKM-6 Weather Reports


time (UTC)temp
F
wind
direction
speed
knots
gust
knots
rain 1hr
in
rain 24hr
in
rain mn
in
humidity
%
barometer
mb
20260506014258 50 152 1.7 5.2 0.00 5.07 0.00 83 1007.2
20260506013801 50 134 0.0 0.0 0.00 5.07 0.00 83 1007.2
20260506013351 50 134 0.0 0.0 0.00 5.07 0.00 83 1007.2
20260506012919 50 134 1.7 0.0 0.00 5.07 0.00 83 1007.2
20260506012451 50 179 0.0 0.0 0.00 5.07 0.00 83 1007.2
20260506012016 50 179 0.0 0.0 0.00 5.07 0.00 83 1007.2
20260506011546 50 179 0.0 0.0 0.00 5.07 0.00 83 1007.1
20260506011139 50 179 0.0 0.0 0.00 5.07 0.00 83 1007.2
20260506010711 50 179 0.0 0.0 0.00 5.07 0.00 83 1007.2
20260506010301 50 179 0.0 0.0 0.00 5.07 0.00 83 1007.1
20260506005856 50 179 0.0 0.0 0.00 5.07 0.00 83 1007.1
20260506005421 50 179 0.0 0.0 0.00 5.07 0.00 83 1006.9
20260506005001 50 179 0.0 0.0 0.00 5.07 0.00 83 1006.8
20260506004554 50 179 2.6 0.0 0.00 5.07 0.00 83 1006.9
20260506004111 50 161 0.0 0.0 0.00 5.07 0.00 83 1006.9
20260506003654 50 145 3.5 3.5 0.00 5.07 0.00 83 1007.1
20260506003212 51 147 1.7 5.2 0.00 5.07 0.00 83 1007.2
20260506002814 51 165 3.5 5.2 0.00 5.07 0.00 83 1007.2
20260506002406 51 164 2.6 2.6 0.00 5.07 0.00 83 1007.3
20260506001934 51 185 0.0 0.0 0.00 5.07 0.00 83 1007.3
20260506001439 51 185 1.7 0.0 0.00 5.07 0.00 82 1007.4
20260506000946 51 176 0.0 0.0 0.00 5.07 0.00 82 1007.5
20260506000526 51 200 2.6 1.7 0.00 5.07 0.00 82 1007.5
20260506000041 51 179 0.0 0.0 0.00 5.07 0.00 82 1007.6
20260505235621 51 179 0.0 0.0 0.00 5.07 0.00 82 1007.6
20260505235141 51 179 0.0 0.0 0.00 5.07 0.00 82 1007.6
20260505234651 51 179 0.0 0.0 0.00 5.07 0.00 83 1007.7
20260505234206 51 179 0.0 0.0 0.00 5.07 0.00 83 1007.7
20260505233706 51 179 0.0 0.0 0.00 5.07 0.00 83 1007.7
20260505233234 51 179 0.0 0.0 0.00 5.07 0.00 83 1007.7
20260505232811 51 179 0.0 0.0 0.00 5.07 0.00 83 1007.8
20260505232314 51 157 0.0 4.3 0.00 5.07 0.00 83 1007.9
20260505231834 51 116 2.6 0.0 0.00 5.07 0.00 83 1007.8
20260505231416 51 193 4.3 6.1 0.00 5.07 0.00 83 1007.8
20260505231011 51 158 6.1 6.1 0.00 5.07 0.00 83 1007.8
20260505230536 51 185 5.2 5.2 0.00 5.07 0.00 83 1007.8
20260505230051 51 169 0.0 0.0 0.00 5.07 0.00 83 1007.8
20260505225554 51 169 2.6 0.9 0.00 5.07 0.11 83 1007.9
20260505225054 51 151 4.3 5.2 0.00 5.07 0.11 83 1007.9
20260505224624 52 171 3.5 3.5 0.00 5.07 0.11 83 1007.9
20260505224141 52 182 5.2 2.6 0.00 5.07 0.11 83 1007.8
20260505223651 52 160 3.5 3.5 0.00 5.07 0.11 83 1007.8
20260505223241 52 172 5.2 3.5 0.00 5.07 0.11 83 1007.8
20260505222741 52 152 5.2 0.0 0.00 5.07 0.11 83 1007.8
20260505222334 52 140 6.1 13.0 0.00 5.07 0.11 83 1007.7
20260505221934 52 172 7.8 7.0 0.00 5.07 0.11 83 1007.8
20260505221501 52 227 3.5 7.0 0.00 5.07 0.11 83 1007.8
20260505221046 52 241 7.8 7.8 0.00 5.07 0.11 83 1007.8
20260505220626 52 138 6.1 5.2 0.00 5.07 0.10 82 1007.8
20260505220154 52 152 1.7 0.0 0.00 5.07 0.10 82 1007.8
20260505215750 53 151 0.0 5.2 0.00 5.07 0.10 82 1007.8
20260505215334 53 138 7.0 9.6 0.00 5.07 0.10 82 1007.8
20260505214857 53 148 7.0 7.0 0.00 5.07 0.10 82 1007.9
20260505214421 53 148 6.1 8.7 0.00 5.07 0.10 82 1007.9
20260505213946 53 144 7.0 6.1 0.00 5.07 0.10 82 1008.0
20260505213501 53 140 7.0 8.7 0.00 5.07 0.10 82 1008.0
20260505213026 53 185 4.3 5.2 0.00 5.07 0.10 82 1007.9
20260505212552 53 178 6.1 5.2 0.00 5.07 0.10 82 1007.9
20260505212151 53 152 4.3 4.3 0.00 5.07 0.10 82 1007.9
20260505211651 53 131 5.2 6.1 0.00 5.07 0.10 82 1007.9
20260505211234 53 131 4.3 4.3 0.00 5.07 0.10 82 1007.9
20260505210831 53 182 3.5 0.0 0.00 5.07 0.10 82 1008.0
20260505210411 53 148 2.6 6.1 0.00 5.07 0.10 82 1007.9
20260505210006 54 137 3.5 0.0 0.00 5.07 0.10 82 1007.9
20260505205511 54 158 5.2 3.5 0.00 5.07 0.10 82 1007.9
20260505205011 54 152 2.6 7.0 0.00 5.07 0.10 81 1007.9
20260505204554 54 133 5.2 3.5 0.00 5.07 0.10 81 1007.9
20260505204151 54 172 5.2 7.0 0.00 5.07 0.10 81 1007.8
20260505203751 54 160 0.0 0.0 0.00 5.07 0.09 81 1007.8
20260505203316 54 222 3.5 4.3 0.00 5.07 0.09 80 1007.7
20260505202911 55 161 7.0 3.5 0.00 5.07 0.09 80 1007.7
20260505202411 55 141 4.3 6.1 0.00 5.07 0.09 80 1007.7
20260505201926 55 172 0.9 6.1 0.00 5.07 0.09 80 1007.6
20260505201440 55 171 0.9 3.5 0.00 5.07 0.09 79 1007.5
20260505201031 55 136 6.1 2.6 0.00 5.07 0.09 79 1007.4
20260505200541 55 147 4.3 4.3 0.00 5.07 0.09 79 1007.4
20260505200114 55 224 0.0 6.1 0.00 5.07 0.09 79 1007.4
20260505195634 55 181 5.2 0.0 0.00 5.07 0.09 79 1007.3
20260505195156 55 131 4.3 2.6 0.00 5.07 0.09 80 1007.3
20260505194714 56 136 7.0 0.9 0.00 5.07 0.09 80 1007.3
20260505194214 56 179 7.0 2.6 0.00 5.07 0.08 80 1007.3
20260505193746 56 158 6.1 7.8 0.00 5.07 0.08 80 1007.3
20260505193246 56 182 0.0 0.0 0.00 5.07 0.08 81 1007.3
20260505192801 56 133 0.0 0.0 0.00 5.07 0.08 81 1007.4
20260505192326 56 151 6.1 0.0 0.00 5.07 0.08 82 1007.4
20260505191914 56 175 3.5 0.0 0.00 5.07 0.08 83 1007.3
20260505191506 56 200 6.1 5.2 0.00 5.07 0.08 83 1007.3
20260505191021 56 106 5.2 2.6 0.00 5.07 0.08 83 1007.2
20260505190554 56 176 7.8 5.2 0.00 5.07 0.08 83 1007.1
20260505185634 56 165 4.3 7.0 0.00 5.07 0.08 84 1007.2
20260505185141 56 210 0.0 0.0 0.00 5.07 0.08 84 1007.1
20260505184702 57 210 4.3 0.0 0.00 5.07 0.07 84 1007.1
20260505184241 57 148 4.3 3.5 0.00 5.07 0.07 84 1007.1
20260505183814 57 199 1.7 3.5 0.00 5.07 0.07 84 1006.9
20260505183411 57 174 2.6 3.5 0.00 5.07 0.07 84 1006.9
20260505182911 57 148 4.3 3.5 0.00 5.07 0.07 84 1006.9
20260505182505 57 151 0.0 0.0 0.00 5.07 0.07 85 1007.1
20260505182014 57 182 5.2 4.3 0.00 5.07 0.07 85 1006.9
20260505181526 57 175 6.1 6.1 0.00 5.07 0.07 85 1006.9
20260505181126 57 178 1.7 7.8 0.00 5.07 0.06 86 1006.8
20260505180711 58 140 1.7 4.3 0.00 5.07 0.06 87 1006.8
20260505180259 58 85 1.7 0.0 0.00 5.07 0.06 87 1006.9
20260505175840 58 162 0.0 0.0 0.00 5.07 0.06 87 1007.1
20260505175354 58 168 0.9 2.6 0.00 5.07 0.06 88 1007.1
20260505174901 58 311 0.0 0.0 0.00 5.07 0.06 88 1006.9
20260505174416 58 311 0.0 0.0 0.00 5.07 0.06 88 1006.9
20260505173941 58 311 0.0 0.0 0.00 5.06 0.05 88 1006.8
20260505173502 58 311 0.0 0.0 0.00 5.06 0.05 88 1006.9
20260505173014 58 342 0.0 0.0 0.00 5.06 0.05 88 1006.9
20260505172554 58 342 0.0 0.0 0.00 5.06 0.05 88 1006.9
20260505172131 58 342 0.9 0.0 0.00 5.06 0.05 87 1006.8
20260505171641 58 282 2.6 3.5 0.00 5.06 0.05 86 1006.8
20260505171234 59 14 1.7 0.0 0.00 5.06 0.04 85 1006.8
20260505170826 59 18 2.6 4.3 0.00 5.06 0.04 83 1006.8
20260505170354 60 339 4.3 4.3 0.00 5.06 0.04 82 1007.1
20260505165916 60 312 7.0 5.2 0.00 5.06 0.04 80 1006.9
20260505165431 60 342 3.5 5.2 0.00 5.06 0.04 80 1006.8
20260505164956 61 340 4.3 2.6 0.00 5.06 0.04 79 1006.8
20260505164544 61 31 5.2 4.3 0.00 5.06 0.04 79 1006.5
20260505164101 61 309 4.3 0.0 0.00 5.06 0.04 77 1006.5
20260505163631 61 1 2.6 0.0 0.00 5.06 0.04 77 1006.5
20260505163146 61 359 5.2 4.3 0.00 5.06 0.04 77 1006.4
20260505162703 61 302 1.7 2.6 0.00 5.06 0.04 78 1006.4
20260505162231 61 3 0.0 0.0 0.00 5.06 0.04 78 1006.3
20260505161736 61 17 2.6 2.6 0.00 5.06 0.04 78 1006.3
20260505161306 61 8 3.5 3.5 0.00 5.06 0.04 78 1006.3
20260505160901 61 319 0.9 0.0 0.00 5.06 0.04 78 1006.3
20260505160446 61 71 0.0 0.0 0.00 5.06 0.04 77 1006.3
20260505153341 61 342 0.9 0.0 0.00 5.06 0.04 81 1006.4
20260505152851 61 359 0.0 0.0 0.00 5.06 0.04 82 1006.4
20260505152354 61 359 0.0 0.0 0.00 5.06 0.04 81 1006.4
20260505151906 61 359 0.0 0.0 0.00 5.06 0.04 82 1006.4
20260505151417 61 359 0.0 0.0 0.00 5.06 0.04 82 1006.5
20260505150951 61 7 4.3 0.0 0.00 5.06 0.04 82 1006.4
20260505150451 61 62 0.0 3.5 0.00 5.06 0.04 81 1006.5
20260505140640 58 292 0.0 0.0 0.00 5.06 0.04 85 1007.3
20260505140151 59 292 0.0 0.0 0.00 5.06 0.04 84 1007.3
20260505130301 60 292 0.0 0.0 0.00 5.06 0.02 77 1008.0
20260505124941 60 185 2.6 0.0 0.00 5.06 0.02 76 1008.0
20260505124451 60 272 0.0 0.0 0.00 5.06 0.02 76 1008.0
20260505124021 61 169 4.3 0.9 0.00 5.06 0.02 76 1008.0
20260505123521 61 229 0.0 3.5 0.00 5.06 0.01 76 1008.0
20260505123120 61 308 0.0 0.0 0.00 5.06 0.01 76 1008.0
20260505122655 61 277 0.0 0.0 0.00 5.06 0.01 76 1008.0
20260505122156 61 210 0.0 0.0 0.00 5.06 0.01 76 1008.0
20260505121721 61 7 0.0 0.0 0.00 5.06 0.01 76 1008.0
20260505121251 61 356 1.7 6.1 0.00 5.06 0.01 76 1007.9
20260505120834 61 270 5.2 5.2 0.00 5.06 0.01 75 1007.9
20260505120334 60 268 1.7 1.7 0.00 5.06 0.01 75 1007.9
20260505115906 61 52 0.0 0.0 0.00 5.06 0.01 73 1007.9
20260505115503 61 291 3.5 1.7 0.00 5.06 0.01 73 1007.9
20260505115046 62 239 5.2 2.6 0.00 5.06 0.00 71 1007.9
20260505114631 62 304 8.7 8.7 0.00 5.06 0.00 70 1008.0
20260505114146 63 301 3.5 4.3 0.00 5.06 0.00 68 1008.0
20260505113701 64 52 10.4 5.2 0.00 5.06 0.00 65 1007.9
20260505113226 64 267 0.9 6.1 0.00 5.06 0.00 64 1007.7
20260505112826 64 251 0.0 0.0 0.00 5.06 0.00 62 1007.6
20260505112352 64 287 0.0 0.0 0.00 5.06 0.00 61 1007.5
20260505111929 64 287 0.0 0.0 0.00 5.06 0.00 59 1007.5
20260505111526 64 55 0.0 0.0 0.00 5.06 0.00 58 1007.4
20260505111117 64 6 0.0 0.0 0.00 5.06 0.00 58 1007.4
20260505110654 64 6 0.9 0.0 0.00 5.06 0.00 58 1007.4
20260505110154 64 11 1.7 0.0 0.00 5.06 0.00 58 1007.4
20260505102213 65 38 0.9 0.0 0.00 5.06 0.00 57 1007.5
20260505101746 65 322 1.7 0.9 0.00 5.06 0.00 57 1007.5
20260505101336 65 330 1.7 2.6 0.00 5.06 0.00 57 1007.6
20260505100934 65 251 1.7 3.5 0.00 5.06 0.00 57 1007.6
20260505100531 65 42 4.3 0.9 0.00 5.06 0.00 57 1007.6
20260505100055 65 20 0.0 0.0 0.00 5.06 0.00 57 1007.7
20260505095626 65 20 2.6 0.0 0.00 5.06 0.00 57 1007.7
20260505095131 65 316 0.0 0.0 0.00 5.06 0.00 57 1007.7
20260505094726 65 352 5.2 6.1 0.00 5.06 0.00 58 1007.7
20260505094241 64 354 0.0 0.0 0.00 5.06 0.00 58 1007.7
20260505093746 64 328 0.0 0.0 0.00 5.06 0.00 59 1007.7
20260505093331 63 309 0.0 2.6 0.00 5.06 0.00 59 1007.7
20260505092836 63 38 0.9 0.0 0.00 5.06 0.00 60 1007.8
20260505092431 63 79 1.7 4.3 0.00 5.06 0.00 60 1007.8
20260505092026 63 62 1.7 4.3 0.00 5.06 0.00 59 1007.9
20260505091526 64 95 0.9 3.5 0.00 5.06 0.00 59 1007.9
20260505091111 64 8 0.9 0.0 0.00 5.06 0.00 58 1007.9
20260505090641 64 179 0.0 0.0 0.00 5.06 0.00 58 1007.9
20260505090236 65 133 3.5 1.7 0.00 5.06 0.00 58 1008.0
20260505085750 64 8 4.3 2.6 0.00 5.06 0.00 58 1008.1
20260505085258 64 10 0.0 0.0 0.00 5.06 0.00 58 1008.1
20260505084816 64 301 4.3 4.3 0.00 5.06 0.00 58 1008.1
20260505081224 63 330 0.9 0.0 0.00 5.06 0.00 60 1008.3
20260505080744 62 346 0.0 4.3 0.00 5.06 0.00 61 1008.4
20260505080336 62 274 2.6 0.0 0.00 5.06 0.00 62 1008.4
20260505075911 62 76 2.6 2.6 0.00 5.06 0.00 62 1008.5
20260505075451 62 349 0.9 0.0 0.00 5.06 0.00 62 1008.6
20260505075024 62 55 2.6 1.7 0.00 5.06 0.00 62 1008.6
20260505074551 61 265 3.5 3.5 0.00 5.06 0.00 63 1008.7
20260505074141 61 352 0.0 5.2 0.00 5.06 0.00 64 1008.7
20260505073716 61 302 4.3 1.7 0.00 5.06 0.00 64 1008.7
20260505073224 60 13 5.2 0.0 0.00 5.06 0.00 65 1008.9
20260505072751 60 347 1.7 2.6 0.00 5.06 0.00 66 1008.9
20260505072324 60 323 1.7 2.6 0.00 5.06 0.00 65 1008.9
20260505071856 60 14 0.9 2.6 0.00 5.06 0.00 66 1008.9
20260505071356 59 27 4.3 4.3 0.00 5.06 0.00 66 1008.9
20260505070931 59 11 3.5 5.2 0.00 5.06 0.00 65 1008.7
20260505070429 59 3 5.2 4.3 0.00 5.06 0.00 66 1008.9
20260505065951 59 6 0.0 0.0 0.00 5.06 0.00 66 1008.7
20260505065456 59 6 2.6 1.7 0.00 5.06 0.00 66 1008.7
20260505065056 59 27 2.6 6.1 0.00 5.06 0.00 67 1008.9
20260505064626 59 343 0.0 0.9 0.00 5.06 0.00 67 1008.9
20260505064201 59 6 0.0 0.0 0.00 5.06 0.00 67 1008.9
20260505063724 59 6 0.0 0.9 0.00 5.06 0.00 67 1009.0
20260505063301 59 3 0.0 0.0 0.00 5.06 0.00 67 1009.0
20260505062811 59 120 0.0 0.0 0.00 5.06 0.00 68 1009.0
20260505062411 58 120 0.0 0.0 0.00 5.06 0.00 68 1009.1
20260505061946 58 120 0.0 0.0 0.00 5.06 0.00 68 1009.1
20260505061536 58 120 0.0 0.0 0.00 5.06 0.00 69 1009.1
20260505061126 58 120 0.0 0.0 0.00 5.06 0.00 69 1009.2
20260505060711 58 120 0.0 0.0 0.00 5.06 0.00 69 1009.1
20260505060234 58 120 0.0 0.0 0.00 5.06 0.00 69 1009.1
20260505055831 57 120 0.0 0.0 0.00 5.06 0.00 69 1009.1
20260505055346 57 120 0.0 0.0 0.00 5.06 0.00 70 1009.1
20260505054944 57 120 0.0 0.0 0.00 5.06 0.00 70 1009.1
20260505054541 57 120 0.0 0.0 0.00 5.06 0.00 70 1009.1
20260505054121 56 120 0.0 0.0 0.00 5.06 0.00 70 1009.1
20260505053711 56 120 0.0 0.0 0.00 5.06 0.00 70 1009.1
20260505053211 56 120 0.0 0.0 0.00 5.06 0.00 70 1009.1
20260505052741 56 151 0.0 1.7 0.00 5.06 0.00 71 1009.2
20260505052321 56 148 0.0 0.0 0.00 5.06 0.00 71 1009.2
20260505051843 56 169 3.5 3.5 0.00 5.06 0.00 71 1009.2
20260505051431 56 110 3.5 0.9 0.00 5.06 0.00 71 1009.2
20260505050931 56 140 4.3 2.6 0.00 5.06 0.00 71 1009.2
20260505050451 55 119 0.0 0.0 0.00 5.06 0.00 71 1009.3
20260505041554 54 120 0.0 0.9 0.00 5.06 0.00 72 1009.5
20260505041116 54 133 4.3 3.5 0.00 5.06 0.00 72 1009.4
20260505040634 54 176 4.3 6.1 0.00 5.06 0.00 72 1009.4
20260505040231 54 128 0.0 4.3 0.00 5.06 0.00 72 1009.4
20260505035816 54 131 0.0 0.0 0.00 5.06 0.00 72 1009.3
20260505035419 54 131 0.0 0.0 0.00 5.06 0.00 72 1009.3
20260505035002 54 131 0.0 0.0 0.00 5.06 0.00 72 1009.2
20260505034526 54 131 0.0 0.9 0.00 5.06 0.00 72 1009.3
20260505034101 55 147 0.0 0.0 0.00 5.06 0.00 72 1009.3
20260505033651 54 147 0.0 0.0 0.00 5.06 0.00 72 1009.3
20260505033224 54 185 0.0 0.0 0.00 5.06 0.00 72 1009.4
20260505032811 54 127 0.0 0.0 0.00 5.06 0.00 72 1009.4
20260505032336 54 157 1.7 1.7 0.00 5.06 0.00 72 1009.4
20260505031851 54 161 1.7 1.7 0.00 5.06 0.00 72 1009.5
20260505031416 55 157 0.0 0.0 0.00 5.06 0.00 72 1009.6
20260505030916 55 157 0.0 0.0 0.00 5.06 0.00 72 1009.7
20260505030456 55 121 2.6 2.6 0.00 5.06 0.00 71 1009.7
20260505030031 55 150 0.9 3.5 0.00 5.06 0.00 71 1009.7
20260505025531 55 145 0.9 2.6 0.00 5.06 0.00 71 1009.8
20260505025041 55 172 0.0 0.0 0.00 5.06 0.00 71 1009.8
20260505024604 55 172 0.0 0.0 0.00 5.06 0.00 71 1009.9
20260505024111 55 189 0.9 1.7 0.00 5.06 0.00 71 1009.9
20260505023626 55 102 0.9 1.7 0.00 5.06 0.00 70 1009.9
20260505023221 55 136 1.7 1.7 0.00 5.06 0.00 70 1009.9
20260505022756 55 167 0.0 0.0 0.00 5.06 0.00 70 1010.0
20260505022321 55 169 0.9 0.0 0.00 5.06 0.00 70 1010.1
20260505021924 55 157 0.0 0.0 0.00 5.06 0.00 70 1010.1
20260505021441 56 155 0.0 0.0 0.00 5.06 0.00 70 1010.1
20260505020951 56 186 0.0 2.6 0.00 5.06 0.00 70 1010.2
20260505020514 56 113 0.0 0.0 0.00 5.06 0.00 69 1010.3
20260505020036 56 162 0.0 0.0 0.00 5.06 0.00 69 1010.3
20260505015626 56 168 0.0 0.0 0.00 5.06 0.00 69 1010.4
20260505015136 56 168 0.0 0.0 0.00 5.06 0.00 69 1010.5
20260505014701 56 168 0.0 0.0 0.00 5.06 0.00 69 1010.5